Time,TemperatureF,DewpointF,PressureIn,WindDirection,WindDirectionDegrees,WindSpeedMPH,WindSpeedGustMPH,Humidity,HourlyPrecipIn,Conditions,Clouds,dailyrainin,SoftwareType,DateUTC
2013-03-03 00:00:00,27.3,23.0,29.95,West,265,2.0,7.0,83,0.00,,,0.00,weatherlink.com 1.10,2013-03-03 05:00:00,
2013-03-03 00:15:00,27.4,23.0,29.95,SSW,202,2.0,6.0,83,0.00,,,0.00,weatherlink.com 1.10,2013-03-03 05:15:00,
2013-03-03 00:30:00,27.4,22.0,29.95,NNW,339,1.0,6.0,81,0.00,,,0.00,weatherlink.com 1.10,2013-03-03 05:30:00,
2013-03-03 00:45:00,27.4,22.0,29.95,West,278,3.0,4.0,81,0.00,,,0.00,weatherlink.com 1.10,2013-03-03 05:45:00,
2013-03-03 01:00:00,27.4,22.0,29.95,SW,216,3.0,7.0,80,0.00,,,0.00,weatherlink.com 1.10,2013-03-03 06:00:00,
2013-03-03 01:15:00,27.3,22.0,29.95,WNW,287,0.0,5.0,80,0.00,,,0.00,weatherlink.com 1.10,2013-03-03 06:15:00,
2013-03-03 01:30:00,27.2,22.0,29.95,WSW,239,4.0,7.0,79,0.00,,,0.00,weatherlink.com 1.10,2013-03-03 06:30:00,
2013-03-03 01:45:00,27.2,22.0,29.95,South,181,2.0,5.0,79,0.00,,,0.00,weatherlink.com 1.10,2013-03-03 06:45:00,
2013-03-03 02:00:00,27.1,21.0,29.95,South,186,0.0,4.0,78,0.00,,,0.00,weatherlink.com 1.10,2013-03-03 07:00:00,
2013-03-03 02:15:00,27.0,20.0,29.94,West,268,1.0,4.0,76,0.00,,,0.00,weatherlink.com 1.10,2013-03-03 07:15:00,
2013-03-03 02:30:00,27.0,20.0,29.94,SSW,207,3.0,7.0,75,0.00,,,0.00,weatherlink.com 1.10,2013-03-03 07:30:00,
2013-03-03 02:45:00,27.1,20.0,29.93,South,184,1.0,4.0,75,0.00,,,0.00,weatherlink.com 1.10,2013-03-03 07:45:00,
2013-03-03 03:00:00,27.0,20.0,29.93,SSW,213,2.0,5.0,75,0.00,,,0.00,weatherlink.com 1.10,2013-03-03 08:00:00,
2013-03-03 03:15:00,27.0,20.0,29.93,WSW,242,1.0,6.0,74,0.00,,,0.00,weatherlink.com 1.10,2013-03-03 08:15:00,
2013-03-03 03:45:00,26.9,20.0,29.93,South,186,1.0,4.0,76,0.00,,,0.00,weatherlink.com 1.10,2013-03-03 08:45:00,
2013-03-03 04:00:00,26.8,20.0,29.93,SSE,163,4.0,6.0,75,0.00,,,0.00,weatherlink.com 1.10,2013-03-03 09:00:00,
2013-03-03 04:15:00,26.7,20.0,29.93,WNW,299,3.0,3.0,75,0.00,,,0.00,weatherlink.com 1.10,2013-03-03 09:15:00,
2013-03-03 04:30:00,26.5,20.0,29.93,SSW,208,3.0,8.0,75,0.00,,,0.00,weatherlink.com 1.10,2013-03-03 09:30:00,
2013-03-03 04:45:00,26.5,20.0,29.93,SW,217,1.0,6.0,75,0.00,,,0.00,weatherlink.com 1.10,2013-03-03 09:45:00,
2013-03-03 05:00:00,26.3,19.0,29.93,SSW,197,1.0,3.0,75,0.00,,,0.00,weatherlink.com 1.10,2013-03-03 10:00:00,
2013-03-03 05:15:00,26.2,19.0,29.94,SW,217,3.0,4.0,75,0.00,,,0.00,weatherlink.com 1.10,2013-03-03 10:15:00,
2013-03-03 05:30:00,26.1,19.0,29.94,SSW,200,1.0,5.0,75,0.00,,,0.00,weatherlink.com 1.10,2013-03-03 10:30:00,
2013-03-03 05:45:00,26.0,19.0,29.94,WSW,252,1.0,3.0,76,0.00,,,0.00,weatherlink.com 1.10,2013-03-03 10:45:00,
2013-03-03 06:00:00,25.9,19.0,29.94,West,276,3.0,4.0,74,0.00,,,0.00,weatherlink.com 1.10,2013-03-03 11:00:00,
2013-03-03 06:15:00,26.1,19.0,29.94,South,190,0.0,3.0,73,0.00,,,0.00,weatherlink.com 1.10,2013-03-03 11:15:00,
2013-03-03 06:30:00,26.0,19.0,29.95,South,184,1.0,3.0,74,0.00,,,0.00,weatherlink.com 1.10,2013-03-03 11:30:00,
2013-03-03 06:45:00,25.9,18.0,29.95,South,186,1.0,2.0,72,0.00,,,0.00,weatherlink.com 1.10,2013-03-03 11:45:00,
2013-03-03 07:00:00,26.0,18.0,29.95,West,268,1.0,4.0,72,0.00,,,0.00,weatherlink.com 1.10,2013-03-03 12:00:00,
2013-03-03 07:15:00,26.0,18.0,29.96,NW,304,3.0,6.0,72,0.00,,,0.00,weatherlink.com 1.10,2013-03-03 12:15:00,
2013-03-03 07:30:00,26.2,18.0,29.96,WSW,252,6.0,6.0,72,0.00,,,0.00,weatherlink.com 1.10,2013-03-03 12:30:00,
2013-03-03 07:45:00,26.6,18.0,29.96,SW,236,3.0,6.0,71,0.00,,,0.00,weatherlink.com 1.10,2013-03-03 12:45:00,
2013-03-03 08:00:00,27.0,18.0,29.95,South,180,5.0,6.0,70,0.00,,,0.00,weatherlink.com 1.10,2013-03-03 13:00:00,
2013-03-03 08:15:00,27.7,19.0,29.95,WSW,252,4.0,5.0,69,0.00,,,0.00,weatherlink.com 1.10,2013-03-03 13:15:00,
2013-03-03 08:30:00,28.7,19.0,29.95,SW,228,6.0,8.0,66,0.00,,,0.00,weatherlink.com 1.10,2013-03-03 13:30:00,
2013-03-03 08:45:00,28.3,19.0,29.95,WSW,251,2.0,9.0,67,0.00,,,0.00,weatherlink.com 1.10,2013-03-03 13:45:00,
2013-03-03 09:00:00,28.1,18.0,29.95,WNW,284,2.0,7.0,67,0.00,,,0.00,weatherlink.com 1.10,2013-03-03 14:00:00,
2013-03-03 09:15:00,28.5,19.0,29.95,WSW,245,5.0,8.0,68,0.00,,,0.00,weatherlink.com 1.10,2013-03-03 14:15:00,
2013-03-03 09:30:00,28.3,18.0,29.95,SSE,157,1.0,7.0,65,0.00,,,0.00,weatherlink.com 1.10,2013-03-03 14:30:00,
2013-03-03 09:45:00,28.7,19.0,29.95,NW,317,2.0,8.0,66,0.00,,,0.00,weatherlink.com 1.10,2013-03-03 14:45:00,
2013-03-03 10:00:00,29.1,19.0,29.94,SSW,194,2.0,10.0,65,0.00,,,0.00,weatherlink.com 1.10,2013-03-03 15:00:00,
2013-03-03 10:15:00,29.7,19.0,29.93,NW,309,4.0,5.0,65,0.00,,,0.00,weatherlink.com 1.10,2013-03-03 15:15:00,
2013-03-03 10:30:00,31.5,20.0,29.93,SSW,195,2.0,7.0,63,0.00,,,0.00,weatherlink.com 1.10,2013-03-03 15:30:00,
2013-03-03 10:46:00,31.9,19.0,29.93,SSW,209,2.0,9.0,60,0.00,,,0.00,weatherlink.com 1.10,2013-03-03 15:46:00,
2013-03-03 11:01:00,33.4,20.0,29.93,WNW,286,4.0,7.0,59,0.00,,,0.00,weatherlink.com 1.10,2013-03-03 16:01:00,
2013-03-03 11:16:00,33.8,19.0,29.93,WNW,290,1.0,7.0,56,0.00,,,0.00,weatherlink.com 1.10,2013-03-03 16:16:00,
2013-03-03 11:31:00,33.4,19.0,29.93,South,189,5.0,10.0,57,0.00,,,0.00,weatherlink.com 1.10,2013-03-03 16:31:00,
2013-03-03 11:46:00,34.2,20.0,29.93,SW,228,3.0,7.0,56,0.00,,,0.00,weatherlink.com 1.10,2013-03-03 16:46:00,
2013-03-03 12:01:00,34.5,20.0,29.92,WSW,250,5.0,6.0,55,0.00,,,0.00,weatherlink.com 1.10,2013-03-03 17:01:00,
2013-03-03 12:16:00,34.7,19.0,29.91,SE,125,0.0,7.0,53,0.00,,,0.00,weatherlink.com 1.10,2013-03-03 17:16:00,
2013-03-03 12:31:00,34.9,19.0,29.91,South,170,4.0,7.0,53,0.00,,,0.00,weatherlink.com 1.10,2013-03-03 17:31:00,
2013-03-03 12:46:00,35.1,19.0,29.90,SSW,194,3.0,10.0,53,0.00,,,0.00,weatherlink.com 1.10,2013-03-03 17:46:00,
2013-03-03 13:01:00,36.6,21.0,29.89,WSW,241,5.0,8.0,53,0.00,,,0.00,weatherlink.com 1.10,2013-03-03 18:01:00,
2013-03-03 13:16:00,38.2,21.0,29.89,SW,221,2.0,7.0,51,0.00,,,0.00,weatherlink.com 1.10,2013-03-03 18:16:00,
2013-03-03 13:31:00,37.5,23.0,29.88,SSW,211,2.0,10.0,55,0.00,,,0.00,weatherlink.com 1.10,2013-03-03 18:31:00,
2013-03-03 13:46:00,36.3,23.0,29.88,NW,325,3.0,8.0,58,0.00,,,0.00,weatherlink.com 1.10,2013-03-03 18:46:00,
2013-03-03 14:01:00,35.7,24.0,29.89,WSW,238,3.0,8.0,62,0.00,,,0.00,weatherlink.com 1.10,2013-03-03 19:01:00,
2013-03-03 14:16:00,35.2,25.0,29.89,West,273,3.0,7.0,66,0.00,,,0.00,weatherlink.com 1.10,2013-03-03 19:16:00,
2013-03-03 14:31:00,35.1,25.0,29.89,WNW,301,4.0,7.0,68,0.00,,,0.00,weatherlink.com 1.10,2013-03-03 19:31:00,
2013-03-03 14:46:00,34.7,26.0,29.89,NW,323,5.0,8.0,70,0.00,,,0.00,weatherlink.com 1.10,2013-03-03 19:46:00,
2013-03-03 15:01:00,33.6,25.0,29.89,NW,306,0.0,9.0,72,0.00,,,0.00,weatherlink.com 1.10,2013-03-03 20:01:00,
2013-03-03 15:16:00,33.6,27.0,29.90,South,183,5.0,6.0,76,0.00,,,0.00,weatherlink.com 1.10,2013-03-03 20:16:00,
2013-03-03 15:31:00,32.6,26.0,29.90,WSW,254,4.0,6.0,77,0.00,,,0.00,weatherlink.com 1.10,2013-03-03 20:31:00,
2013-03-03 15:46:00,32.3,25.0,29.90,SW,236,2.0,6.0,75,0.00,,,0.00,weatherlink.com 1.10,2013-03-03 20:46:00,
2013-03-03 16:01:00,32.5,24.0,29.89,South,180,2.0,6.0,72,0.00,,,0.00,weatherlink.com 1.10,2013-03-03 21:01:00,
2013-03-03 16:16:00,32.1,26.0,29.90,WNW,294,0.0,7.0,78,0.00,,,0.00,weatherlink.com 1.10,2013-03-03 21:16:00,
2013-03-03 16:31:00,31.9,26.0,29.90,WNW,290,1.0,6.0,80,0.00,,,0.00,weatherlink.com 1.10,2013-03-03 21:31:00,
2013-03-03 16:46:00,31.7,26.0,29.90,WNW,290,3.0,8.0,80,0.00,,,0.00,weatherlink.com 1.10,2013-03-03 21:46:00,
2013-03-03 17:01:00,31.4,26.0,29.90,SW,217,1.0,6.0,80,0.00,,,0.00,weatherlink.com 1.10,2013-03-03 22:01:00,
2013-03-03 17:16:00,31.2,26.0,29.90,NNW,336,1.0,5.0,81,0.00,,,0.00,weatherlink.com 1.10,2013-03-03 22:16:00,
2013-03-03 17:31:00,31.0,25.0,29.91,WNW,289,3.0,5.0,79,0.00,,,0.00,weatherlink.com 1.10,2013-03-03 22:31:00,
2013-03-03 17:46:00,30.7,25.0,29.91,WNW,289,2.0,3.0,79,0.00,,,0.00,weatherlink.com 1.10,2013-03-03 22:46:00,
2013-03-03 18:01:00,30.5,24.0,29.91,SW,234,1.0,5.0,78,0.00,,,0.00,weatherlink.com 1.10,2013-03-03 23:01:00,
2013-03-03 18:16:00,30.6,24.0,29.92,SSW,213,2.0,5.0,77,0.00,,,0.00,weatherlink.com 1.10,2013-03-03 23:16:00,
2013-03-03 18:31:00,30.7,22.0,29.93,West,263,6.0,11.0,69,0.00,,,0.00,weatherlink.com 1.10,2013-03-03 23:31:00,
2013-03-03 18:46:00,30.7,21.0,29.93,South,182,2.0,9.0,68,0.00,,,0.00,weatherlink.com 1.10,2013-03-03 23:46:00,
2013-03-03 19:01:00,30.5,21.0,29.93,South,182,4.0,9.0,67,0.00,,,0.00,weatherlink.com 1.10,2013-03-04 00:01:00,
2013-03-03 19:16:00,30.1,20.0,29.94,WSW,255,3.0,9.0,66,0.00,,,0.00,weatherlink.com 1.10,2013-03-04 00:16:00,
2013-03-03 19:31:00,29.7,20.0,29.94,SSW,192,2.0,7.0,66,0.00,,,0.00,weatherlink.com 1.10,2013-03-04 00:31:00,
2013-03-03 19:46:00,29.4,20.0,29.95,WNW,286,3.0,8.0,67,0.00,,,0.00,weatherlink.com 1.10,2013-03-04 00:46:00,
2013-03-03 20:01:00,29.1,20.0,29.95,WNW,302,4.0,5.0,68,0.00,,,0.00,weatherlink.com 1.10,2013-03-04 01:01:00,
2013-03-03 20:16:00,28.8,20.0,29.96,WSW,254,6.0,9.0,69,0.00,,,0.00,weatherlink.com 1.10,2013-03-04 01:16:00,
2013-03-03 20:31:00,28.4,19.0,29.96,SW,224,6.0,8.0,68,0.00,,,0.00,weatherlink.com 1.10,2013-03-04 01:31:00,
2013-03-03 20:46:00,27.9,19.0,29.96,SSW,209,2.0,9.0,68,0.00,,,0.00,weatherlink.com 1.10,2013-03-04 01:46:00,
2013-03-03 21:01:00,27.6,19.0,29.96,SW,215,2.0,6.0,70,0.00,,,0.00,weatherlink.com 1.10,2013-03-04 02:01:00,
2013-03-03 21:16:00,27.4,19.0,29.96,SSE,153,0.0,6.0,71,0.00,,,0.00,weatherlink.com 1.10,2013-03-04 02:16:00,
2013-03-03 21:32:00,27.3,19.0,29.97,SSW,193,5.0,8.0,70,0.00,,,0.00,weatherlink.com 1.10,2013-03-04 02:32:00,
2013-03-03 21:47:00,27.3,19.0,29.97,WNW,283,0.0,11.0,70,0.00,,,0.00,weatherlink.com 1.10,2013-03-04 02:47:00,
2013-03-03 22:02:00,27.1,19.0,29.98,SW,219,0.0,8.0,70,0.00,,,0.00,weatherlink.com 1.10,2013-03-04 03:02:00,
2013-03-03 22:17:00,27.0,18.0,29.97,SSE,165,0.0,11.0,70,0.00,,,0.00,weatherlink.com 1.10,2013-03-04 03:17:00,
2013-03-03 22:32:00,26.9,19.0,29.97,WSW,238,4.0,8.0,71,0.00,,,0.00,weatherlink.com 1.10,2013-03-04 03:32:00,
2013-03-03 22:47:00,26.8,18.0,29.97,South,172,3.0,7.0,70,0.00,,,0.00,weatherlink.com 1.10,2013-03-04 03:47:00,
2013-03-03 23:02:00,26.6,18.0,29.97,South,188,4.0,5.0,71,0.00,,,0.00,weatherlink.com 1.10,2013-03-04 04:02:00,
2013-03-03 23:17:00,26.5,18.0,29.97,South,183,0.0,12.0,69,0.00,,,0.00,weatherlink.com 1.10,2013-03-04 04:17:00,
2013-03-03 23:32:00,26.4,17.0,29.97,SSW,211,2.0,6.0,69,0.00,,,0.00,weatherlink.com 1.10,2013-03-04 04:32:00,
2013-03-03 23:47:00,26.2,18.0,29.97,SW,236,2.0,7.0,71,0.00,,,0.00,weatherlink.com 1.10,2013-03-04 04:47:00,